Location: Star Hoppers Observatory
(42.7905°N, 83.6127°W)
Time: 14:55:46
(UTC-05:00)

Daily predictions for brighter satellites

Satellite Brightness Start Highest point End
(mag) Time Altitude Azimuth Time Altitude Azimuth Time Altitude Azimuth
Cosmos 2333 4.4 18:41:32 10° NNW 18:47:10 55° ENE 18:52:48 10° SE
Cosmos 1741 Rocket 4.1 18:42:37 10° S 18:47:44 60° ESE 18:52:53 10° NNE
COSMO-SKYMED 1 2.6 18:45:03 10° NNE 18:49:25 89° WSW 18:53:45 10° SSW
Cosmos 2219 Rocket 2.7 18:45:29 10° N 18:50:43 38° ENE 18:55:54 10° SE
Cosmos 2237 4.3 18:45:00 10° NNW 18:50:46 83° ENE 18:56:29 10° SSE
COSMOS 2428 2.7 18:45:31 10° NNW 18:51:12 67° ENE 18:56:52 10° SE
ALOS 3.1 18:47:13 10° SE 18:51:16 30° ENE 18:55:20 10° N
Cosmos 2360 Rocket 3.0 18:46:44 10° NNW 18:52:17 58° WSW 18:57:49 10° S
Meteor 1-19 Rocket 4.3 18:47:17 10° N 18:53:02 80° E 18:58:50 10° SSE
H-2A R/B 4.3 18:51:18 10° ESE 18:53:46 17° ENE 18:56:14 10° NNE
Meteor 2-4 Rocket 3.6 18:53:33 10° N 18:59:00 64° ENE 19:04:20 10° SSE
USA 229 DEB 3.8 18:52:31 10° NNW 18:59:40 71° NE 19:06:53 10° SE
USA 229 3.8 18:52:37 10° NNW 18:59:45 70° NE 19:06:59 10° SE
SJ-6B 3.1 18:56:18 10° SE 19:00:04 46° ENE 19:03:47 10° N
Cosmos 2227 Rocket 3.2 19:00:28 10° SSE 19:04:50 24° ESE 19:09:15 10° NE
Cosmos 2219 3.2 18:59:47 10° SSW 19:05:31 77° ESE 19:11:17 10° NNE
BREEZE-M DEB (TANK) 3.3 19:04:21 10° NW 19:07:12 60° NNE 19:14:40 10° ESE
Cosmos 1570 Rocket 4.2 19:02:50 10° NNW 19:08:05 81° WSW 19:13:19 10° SSE
Cosmos 468 Rocket 4.5 19:03:11 10° N 19:08:08 40° ENE 19:13:05 10° SE
Meteor 1-23 Rocket 4.3 19:04:23 10° N 19:10:10 66° ENE 19:15:50 10° SSE
Resurs 01 Rocket 2.3 19:06:33 10° SE 19:10:29 33° ENE 19:14:26 10° N
USA 215 4.2 19:06:30 10° NE 19:12:35 43° NNW 19:18:39 10° W
SL-08 ROCKET BODY 4.5 19:07:23 10° S 19:13:28 65° E 19:19:36 10° NNE
Gbstr 26 Del rocket 3.7 19:10:24 10° W 19:14:03 40° NNW 19:17:37 10° NE
NOAA 12 4.2 19:08:52 10° SSE 19:14:12 87° WSW 19:19:35 10° NNW
Cosmos 1025 Rocket 3.0 19:10:10 10° N 19:14:32 62° E 19:18:53 10° SSE
Resurs 1-3 4.3 19:12:12 10° SE 19:16:05 32° ENE 19:19:59 10° N
ATLAS 2AS CENTAUR R/B 4.5 19:10:23 10° NNW 19:16:16 21° NNE 19:21:49 11° ENE
Spot 2 Rocket 3.9 19:12:13 10° SE 19:16:55 40° ENE 19:21:40 10° N
Okean 1 Rocket 3.4 19:13:17 10° SSW 19:17:45 73° W 19:22:14 10° N
SL-16 R/B 3.6 19:14:20 10° N 19:18:23 19° NE 19:21:06 14° E
Cosmos 1892 Rocket 4.1 19:16:17 10° N 19:20:21 37° ENE 19:24:25 10° SE
FREGAT/IRIS 2.6 19:18:17 10° SSE 19:21:22 87° W 19:24:29 10° NNW
Atlas Centaur 2 4.3 19:21:25 10° SSW 19:26:18 18° SSE 19:30:22 11° SE
GPS 2-04 Rocket1 4.1 19:22:51 10° WSW 19:26:35 31° S 19:29:35 14° SE
NOSS 3-1 (C) 4.2 19:21:38 10° NNW 19:28:58 55° NE 19:36:32 12° ESE
Abrixas rocket 2.9 19:27:05 10° W 19:30:21 49° NNW 19:32:36 18° NE
OTV 4 1.9 19:28:07 10° SW 19:30:39 25° SSE 19:31:45 20° SE
Cosmos 1814 Rocket 4.2 19:26:34 10° N 19:31:33 47° ENE 19:36:28 10° SE
Okean 2 3.3 19:28:05 10° N 19:32:15 66° E 19:36:25 10° SSE
Cosmos 1536 3.6 19:28:27 10° SSW 19:32:21 55° W 19:36:17 10° N
Envisat 4.3 19:32:28 19° E 19:33:45 21° ENE 19:37:27 10° NNE
FENGYUN 3A 3.6 19:28:30 10° SSE 19:33:53 76° ENE 19:39:20 10° N
Cosmos 2074 Rocket 4.0 19:30:46 10° S 19:37:01 88° E 19:43:21 10° N
HJ-1C 3.3 19:36:30 10° SSE 19:39:52 88° W 19:43:16 10° NNW
Cosmos 1980 3.7 19:35:47 10° NNW 19:41:24 62° ENE 19:46:48 11° SE
NOSS 0 Rocket 3.8 19:36:16 10° NNW 19:42:27 79° ENE 19:48:36 10° SSE
USA 186 3.7 19:45:05 14° NNE 19:45:05 14° NNE 19:45:39 10° NNE
Cosmos 1544 Rocket 3.6 19:39:12 10° S 19:43:23 53° E 19:47:37 10° NNE
Cosmos 2333 Rocket 2.2 19:39:07 10° NNW 19:44:54 81° ENE 19:50:40 10° SSE
Cosmos 2184 Rocket 4.1 19:39:27 10° S 19:45:45 83° W 19:52:02 10° N
Helios 1B rocket 3.1 19:42:41 10° NNE 19:46:27 33° E 19:50:11 10° SSE
Aureole 2 Rocket 4.1 19:47:06 10° N 19:48:31 17° NNE 19:48:31 17° NNE
Helios 1A 3.1 19:52:56 27° SE 19:54:53 50° ENE 19:58:55 10° N
Cosmos 1437 2.6 19:52:20 10° N 19:55:38 74° E 19:56:58 33° SSE
Cosmos 1975 3.0 19:52:09 10° SSE 19:56:02 47° E 19:59:58 10° NNE
Cosmos 1602 Rocket 4.3 19:54:09 10° N 19:57:52 32° ENE 19:57:52 32° ENE
Cosmos 1500 3.3 19:54:35 10° SSE 19:58:13 46° E 20:01:51 10° NNE
Nadezhda 3 Rocket 3.9 19:55:24 10° N 20:01:35 71° E 20:07:45 10° SSE
Cosmos 1626 Rocket 4.1 19:58:05 10° N 20:02:06 37° ENE 20:02:06 37° ENE
Cosmos 1515 3.5 19:59:55 10° N 20:03:48 75° E 20:05:39 29° SSE
Cosmos 1486 Rocket 3.9 19:59:31 10° S 20:04:47 65° ESE 20:10:03 10° NNE
Cosmos 2082 3.6 20:02:46 10° SSW 20:08:27 70° ESE 20:14:09 10° NNE
Cosmos 841 Rocket 3.5 20:03:56 10° NNW 20:09:00 58° ENE 20:10:38 40° SE
Spot 1 3.8 20:11:15 32° SSE 20:13:06 84° ENE 20:17:21 10° NNW
ATLAS CENTAUR R/B 2.0 20:10:42 10° SW 20:13:25 41° SW 20:13:25 41° SW
Cosmos 2154 Rocket 4.0 20:09:12 10° S 20:15:33 89° E 20:21:55 10° N
Cosmos 540 Rocket 4.4 20:11:27 10° N 20:15:14 29° NE 20:15:14 29° NE
Cosmos 2341 Rocket 3.9 20:11:13 10° S 20:17:32 70° E 20:23:54 10° NNE
Cosmos 1763 Rocket 3.3 20:12:38 10° NNW 20:17:48 85° ENE 20:20:13 33° SSE
Hubble Space Telescope 3.3 20:19:36 10° SSW 20:20:15 10° S 20:20:16 10° S
Cosmos 1455 Rocket 3.2 20:16:13 10° SSW 20:20:35 73° W 20:24:56 10° N
Cosmos 405 Rocket 4.3 20:18:52 10° NNW 20:22:36 36° W 20:26:15 10° SSW
Cosmos 2237 Rocket 2.5 20:20:01 10° NNW 20:25:40 66° WSW 20:29:45 19° S
Cosmos 332 Rocket 3.7 20:21:59 10° NNW 20:26:55 89° ENE 20:28:04 53° SSE
Meteor 2-8 Rocket 4.3 20:21:26 10° N 20:27:31 75° E 20:30:43 30° SSE
Cosmos 2297 Rocket 2.1 20:21:52 10° SSW 20:27:31 85° ESE 20:33:13 10° NNE
H-2A R/B 4.3 20:24:22 10° SSW 20:27:46 34° W 20:31:15 10° NNW
ALOS 4.2 20:24:36 10° SSW 20:28:39 29° W 20:32:44 10° NW
OAO 3 Rocket 4.4 20:24:23 10° SW 20:28:19 29° S 20:28:19 29° S
Meteor 2-19 Rocket 4.4 20:23:23 10° S 20:29:25 62° E 20:35:29 10° NNE
SAR-Lupe-4 4.5 20:29:01 37° SW 20:29:57 47° W 20:33:26 10° NNW
CZ-2D R/B 4.4 20:30:04 18° SSW 20:32:34 41° W 20:36:13 10° NNW
Cosmos 1066 Rocket 4.1 20:27:44 10° N 20:33:23 87° W 20:36:02 32° S
Cosmos 2219 Rocket 3.8 20:29:37 10° NW 20:34:32 32° WSW 20:39:27 10° SSW
Cosmos 371 Rocket 3.1 20:30:45 10° NNW 20:35:40 83° ENE 20:35:46 82° E
Cosmos 836 Rocket 4.5 20:39:15 10° NNW 20:44:06 69° NNE 20:44:06 69° NNE
SJ-11-01 4.4 20:45:58 67° N 20:45:58 67° N 20:50:07 10° NNW
Resurs 01 Rocket 3.9 20:43:27 10° SSW 20:47:00 24° W 20:50:33 10° NW
Cosmos 2227 Rocket 3.0 20:43:00 10° SW 20:48:30 51° WNW 20:54:03 10° NNE
Meteor 1-21 4.4 20:54:59 10° N 20:59:47 63° N 20:59:47 63° N
GEOS 3 Rocket 4.0 21:01:29 50° N 21:02:33 62° NW 21:07:45 10° SW
ERS-1 Rocket 4.0 21:05:00 38° N 21:05:00 38° N 21:08:04 10° N
Cosmos 2218 Rocket 4.3 21:04:39 54° NNE 21:04:39 54° NNE 21:09:25 10° N
SL-16 R/B 2.2 20:57:27 10° NNW 21:03:01 75° W 21:03:01 75° W
NOSS 3-1 (A) 4.3 20:55:49 10° NW 21:03:23 64° WSW 21:06:34 39° S
ATLAS 2AS CENTAUR R/B 3.2 21:01:25 10° NNW 21:09:17 53° NE 21:09:17 53° NE
Envisat 3.7 21:12:39 51° W 21:12:39 51° W 21:17:21 10° NNW
Atlas Centaur 2 4.1 21:09:13 10° SW 21:13:01 22° SSW 21:13:01 22° SSW
SL-8 Rocket 4.4 21:22:35 35° SW 21:25:09 59° W 21:31:24 10° N
